SWA4005 KRIC-KDEN

Flight info

Callsign SWA4005
Flight time 3h 57m
Altitude 38000
Route KALLI7 READE MOL J24 FLM GBEES Q176 STL J24 OATHE CLASH5
Aircraft B738/M-SADE2E3GIJ4RWZ/LB1D1

Departure

Time 2026-05-04 21:26
Airport Richmond International Airport (KRIC)

Arrival

Time 2026-05-05 01:23
Airport Denver International Airport (KDEN)
Time Latitude Longitude Altitude Speed Heading
2026-05-04 21:00 37.50892 -77.32972 172 ft 0 kts 287°
2026-05-04 21:18 37.50891 -77.32967 172 ft 2 kts 287°
2026-05-04 21:18 37.50886 -77.32947 172 ft 2 kts 287°
2026-05-04 21:18 37.50881 -77.32928 172 ft 2 kts 287°
2026-05-04 21:19 37.50877 -77.32910 172 ft 0 kts 287°
2026-05-04 21:20 37.50879 -77.32922 172 ft 0 kts 287°
2026-05-04 21:22 37.50889 -77.32931 172 ft 3 kts 332°
2026-05-04 21:22 37.50916 -77.32913 171 ft 12 kts 51°
2026-05-04 21:22 37.50975 -77.32792 170 ft 13 kts 41°
2026-05-04 21:23 37.51060 -77.32757 171 ft 13 kts 14°
2026-05-04 21:23 37.51159 -77.32726 171 ft 18 kts 12°
2026-05-04 21:23 37.51304 -77.32682 172 ft 22 kts 13°
2026-05-04 21:23 37.51453 -77.32639 174 ft 22 kts 12°
2026-05-04 21:24 37.51596 -77.32596 173 ft 21 kts 16°
2026-05-04 21:24 37.51639 -77.32498 175 ft 12 kts 90°
2026-05-04 21:24 37.51640 -77.32377 177 ft 10 kts 65°
2026-05-04 21:24 37.51638 -77.32340 177 ft 0 kts 131°
2026-05-04 21:25 37.51633 -77.32333 178 ft 7 kts 134°
2026-05-04 21:25 37.51620 -77.32319 178 ft 0 kts 145°
2026-05-04 21:25 37.51581 -77.32287 178 ft 23 kts 147°
2026-05-04 21:25 37.51300 -77.32066 178 ft 82 kts 149°
2026-05-04 21:26 37.50617 -77.31523 177 ft 147 kts 149°
2026-05-04 21:26 37.49620 -77.30786 522 ft 174 kts 155°
2026-05-04 21:26 37.48489 -77.30218 1343 ft 173 kts 186°
2026-05-04 21:26 37.47444 -77.30850 1889 ft 187 kts 240°
2026-05-04 21:27 37.46894 -77.32441 2206 ft 211 kts 254°
2026-05-04 21:27 37.46843 -77.34351 2623 ft 228 kts 270°
2026-05-04 21:27 37.46922 -77.36377 3197 ft 231 kts 269°
2026-05-04 21:27 37.46990 -77.38396 4001 ft 229 kts 270°
2026-05-04 21:28 37.47046 -77.40461 4415 ft 248 kts 269°
2026-05-04 21:28 37.47089 -77.42686 4949 ft 258 kts 268°
2026-05-04 21:28 37.47122 -77.44928 5987 ft 255 kts 269°
2026-05-04 21:28 37.47145 -77.47171 6855 ft 257 kts 269°
2026-05-04 21:29 37.47163 -77.49424 7686 ft 258 kts 270°
2026-05-04 21:29 37.47175 -77.51698 8544 ft 258 kts 271°
2026-05-04 21:29 37.47185 -77.53935 9392 ft 259 kts 272°
2026-05-04 21:29 37.47168 -77.56220 10148 ft 262 kts 269°
2026-05-04 21:30 37.47014 -77.58587 10488 ft 282 kts 267°
2026-05-04 21:30 37.46811 -77.61149 10658 ft 305 kts 266°
2026-05-04 21:30 37.46594 -77.63895 10826 ft 325 kts 266°
2026-05-04 21:30 37.46116 -77.66737 11004 ft 347 kts 256°
2026-05-04 21:31 37.44514 -77.72615 12147 ft 358 kts 254°
2026-05-04 21:31 37.43691 -77.75572 12813 ft 360 kts 254°
2026-05-04 21:31 37.42869 -77.78560 13429 ft 363 kts 254°
2026-05-04 21:32 37.42048 -77.81577 14017 ft 366 kts 254°
2026-05-04 21:32 37.41224 -77.84629 14567 ft 369 kts 254°
2026-05-04 21:32 37.40399 -77.87699 15127 ft 372 kts 254°
2026-05-04 21:32 37.39571 -77.90787 15717 ft 374 kts 254°
2026-05-04 21:33 37.38736 -77.93901 16245 ft 377 kts 254°
2026-05-04 21:33 37.37891 -77.97047 16759 ft 380 kts 254°
2026-05-04 21:33 37.37041 -78.00213 17297 ft 383 kts 254°
2026-05-04 21:33 37.36185 -78.03397 17823 ft 386 kts 253°
2026-05-04 21:34 37.35330 -78.06569 18321 ft 388 kts 253°
2026-05-04 21:34 37.34461 -78.09795 18779 ft 391 kts 253°
2026-05-04 21:34 37.33584 -78.13042 19235 ft 393 kts 253°
2026-05-04 21:34 37.32701 -78.16309 19688 ft 395 kts 253°
2026-05-04 21:35 37.31815 -78.19583 20140 ft 397 kts 253°
2026-05-04 21:35 37.30921 -78.22885 20577 ft 400 kts 253°
2026-05-04 21:35 37.30037 -78.26199 20994 ft 401 kts 256°
2026-05-04 21:35 37.29689 -78.29661 21358 ft 401 kts 273°
2026-05-04 21:36 37.30172 -78.33111 21804 ft 403 kts 287°
2026-05-04 21:36 37.31286 -78.36351 22200 ft 408 kts 299°
2026-05-04 21:36 37.33062 -78.39173 22553 ft 415 kts 311°
2026-05-04 21:36 37.35107 -78.41747 22931 ft 418 kts 313°
2026-05-04 21:37 37.37205 -78.44302 23276 ft 421 kts 313°
2026-05-04 21:37 37.39319 -78.46863 23623 ft 423 kts 313°
2026-05-04 21:37 37.41409 -78.49412 23937 ft 424 kts 313°
2026-05-04 21:37 37.43526 -78.52015 24250 ft 426 kts 312°
2026-05-04 21:38 37.45638 -78.54633 24569 ft 427 kts 312°
2026-05-04 21:38 37.47754 -78.57269 24878 ft 428 kts 312°
2026-05-04 21:38 37.49874 -78.59920 25173 ft 430 kts 312°
2026-05-04 21:38 37.51999 -78.62582 25467 ft 431 kts 312°
2026-05-04 21:39 37.54131 -78.65256 25748 ft 433 kts 312°
2026-05-04 21:39 37.56271 -78.67943 26016 ft 435 kts 312°
2026-05-04 21:39 37.58416 -78.70636 26282 ft 436 kts 312°
2026-05-04 21:39 37.60566 -78.73339 26554 ft 437 kts 312°
2026-05-04 21:40 37.62726 -78.76055 26811 ft 439 kts 312°
2026-05-04 21:40 37.64889 -78.78779 27076 ft 440 kts 312°
2026-05-04 21:40 37.67060 -78.81514 27339 ft 441 kts 313°
2026-05-04 21:40 37.69205 -78.84219 27692 ft 440 kts 313°
2026-05-04 21:41 37.71361 -78.86941 28116 ft 437 kts 313°
2026-05-04 21:41 37.73503 -78.89646 28541 ft 434 kts 313°
2026-05-04 21:41 37.75641 -78.92349 28893 ft 433 kts 313°
2026-05-04 21:41 37.77772 -78.95047 29218 ft 433 kts 313°
2026-05-04 21:42 37.79898 -78.97741 29597 ft 432 kts 313°
2026-05-04 21:42 37.82013 -79.00422 30012 ft 429 kts 313°
2026-05-04 21:42 37.84121 -79.03096 30337 ft 428 kts 313°
2026-05-04 21:42 37.86220 -79.05761 30599 ft 427 kts 312°
2026-05-04 21:43 37.88142 -79.08619 30838 ft 425 kts 303°
2026-05-04 21:43 37.89658 -79.11817 31121 ft 423 kts 296°
2026-05-04 21:43 37.90856 -79.15205 31412 ft 422 kts 289°
2026-05-04 21:43 37.91639 -79.18785 31688 ft 421 kts 283°
2026-05-04 21:44 37.92265 -79.22364 31941 ft 421 kts 282°
2026-05-04 21:44 37.92880 -79.25984 32219 ft 420 kts 282°
2026-05-04 21:44 37.93499 -79.29612 32487 ft 420 kts 282°
2026-05-04 21:44 37.94125 -79.33228 32736 ft 420 kts 282°
2026-05-04 21:45 37.94758 -79.36848 33005 ft 420 kts 283°
2026-05-04 21:45 37.95394 -79.40454 33277 ft 419 kts 283°
2026-05-04 21:45 37.96030 -79.44056 33496 ft 419 kts 283°
2026-05-04 21:45 37.96667 -79.47666 33724 ft 420 kts 283°
2026-05-04 21:46 37.97302 -79.51273 33954 ft 420 kts 283°
2026-05-04 21:46 37.97938 -79.54891 34162 ft 419 kts 283°
2026-05-04 21:46 37.98570 -79.58495 34364 ft 419 kts 283°
2026-05-04 21:46 37.99202 -79.62106 34532 ft 420 kts 283°
2026-05-04 21:47 37.99839 -79.65725 34777 ft 419 kts 283°
2026-05-04 21:47 38.00469 -79.69283 34977 ft 419 kts 283°
2026-05-04 21:47 38.01108 -79.72895 35167 ft 419 kts 283°
2026-05-04 21:47 38.01746 -79.76503 35367 ft 419 kts 283°
2026-05-04 21:48 38.02383 -79.80115 35517 ft 419 kts 283°
2026-05-04 21:48 38.03019 -79.83730 35700 ft 419 kts 283°
2026-05-04 21:48 38.03652 -79.87342 35886 ft 419 kts 283°
2026-05-04 21:48 38.04284 -79.90950 36072 ft 419 kts 283°
2026-05-04 21:49 38.04906 -79.94513 36244 ft 418 kts 283°
2026-05-04 21:49 38.05535 -79.98118 36396 ft 418 kts 283°
2026-05-04 21:49 38.06162 -80.01724 36559 ft 418 kts 283°
2026-05-04 21:49 38.06790 -80.05336 36743 ft 418 kts 283°
2026-05-04 21:50 38.07414 -80.08937 36911 ft 418 kts 283°
2026-05-04 21:50 38.08036 -80.12535 37118 ft 417 kts 283°
2026-05-04 21:50 38.08655 -80.16121 37330 ft 415 kts 283°
2026-05-04 21:50 38.09272 -80.19699 37538 ft 414 kts 283°
2026-05-04 21:51 38.09877 -80.23215 37719 ft 413 kts 283°
2026-05-04 21:51 38.10489 -80.26779 37845 ft 412 kts 283°
2026-05-04 21:51 38.11097 -80.30325 37947 ft 411 kts 283°
2026-05-04 21:52 38.12314 -80.37452 37972 ft 414 kts 283°
2026-05-04 21:52 38.13521 -80.44635 37972 ft 416 kts 283°
2026-05-04 21:53 38.14718 -80.51811 37967 ft 418 kts 282°
2026-05-04 21:53 38.15922 -80.59052 37955 ft 419 kts 282°
2026-05-04 21:54 38.17119 -80.66269 37940 ft 419 kts 282°
2026-05-04 21:54 38.18318 -80.73528 37930 ft 419 kts 282°
2026-05-04 21:55 38.19511 -80.80776 37929 ft 417 kts 282°
2026-05-04 21:55 38.20705 -80.88005 37924 ft 416 kts 282°
2026-05-04 21:56 38.21885 -80.95160 37924 ft 415 kts 282°
2026-05-04 21:56 38.23062 -81.02331 37920 ft 413 kts 282°
2026-05-04 21:57 38.24230 -81.09487 37929 ft 412 kts 282°
2026-05-04 21:57 38.25393 -81.16631 37915 ft 411 kts 282°
2026-05-04 21:58 38.26548 -81.23756 37922 ft 411 kts 282°
2026-05-04 21:58 38.27692 -81.30845 37922 ft 411 kts 282°
2026-05-04 21:59 38.28643 -81.36776 37923 ft 412 kts 282°
2026-05-04 21:59 38.29784 -81.43930 37921 ft 412 kts 282°
2026-05-04 22:00 38.30922 -81.51093 37918 ft 413 kts 282°
2026-05-04 22:00 38.32245 -81.59457 37902 ft 414 kts 282°
2026-05-04 22:01 38.33196 -81.65490 37896 ft 415 kts 281°
2026-05-04 22:01 38.34323 -81.72663 37900 ft 416 kts 281°
2026-05-04 22:02 38.35422 -81.79901 37901 ft 415 kts 280°
2026-05-04 22:02 38.36352 -81.87136 37903 ft 412 kts 279°
2026-05-04 22:03 38.37245 -81.94353 37904 ft 411 kts 279°
2026-05-04 22:03 38.38136 -82.01490 37907 ft 409 kts 279°
2026-05-04 22:04 38.39037 -82.08642 37905 ft 408 kts 279°
2026-05-04 22:04 38.39935 -82.15783 37894 ft 408 kts 279°
2026-05-04 22:05 38.40829 -82.22924 37897 ft 408 kts 279°
2026-05-04 22:05 38.41721 -82.30086 37893 ft 409 kts 279°
2026-05-04 22:06 38.42612 -82.37272 37884 ft 411 kts 278°
2026-05-04 22:06 38.43501 -82.44486 37879 ft 412 kts 278°
2026-05-04 22:07 38.44388 -82.51718 37880 ft 413 kts 278°
2026-05-04 22:07 38.45268 -82.58928 37889 ft 414 kts 278°
2026-05-04 22:08 38.46150 -82.66199 37882 ft 415 kts 278°
2026-05-04 22:08 38.47029 -82.73482 37880 ft 415 kts 278°
2026-05-04 22:09 38.47903 -82.80759 37882 ft 414 kts 278°
2026-05-04 22:09 38.48771 -82.88029 37878 ft 414 kts 278°
2026-05-04 22:10 38.49632 -82.95278 37888 ft 413 kts 278°
2026-05-04 22:10 38.50481 -83.02471 37884 ft 412 kts 278°
2026-05-04 22:11 38.51334 -83.09732 37888 ft 410 kts 278°
2026-05-04 22:11 38.52171 -83.16888 37889 ft 409 kts 278°
2026-05-04 22:12 38.53005 -83.24074 37891 ft 408 kts 278°
2026-05-04 22:12 38.53836 -83.31260 37882 ft 408 kts 278°
2026-05-04 22:13 38.54659 -83.38427 37887 ft 407 kts 278°
2026-05-04 22:13 38.55477 -83.45585 37889 ft 407 kts 278°
2026-05-04 22:14 38.56292 -83.52757 37887 ft 408 kts 278°
2026-05-04 22:14 38.57104 -83.59934 37888 ft 408 kts 278°
2026-05-04 22:15 38.57907 -83.67081 37891 ft 409 kts 278°
2026-05-04 22:15 38.58713 -83.74299 37886 ft 410 kts 278°
2026-05-04 22:16 38.59516 -83.81523 37893 ft 411 kts 278°
2026-05-04 22:16 38.60316 -83.88760 37882 ft 412 kts 277°
2026-05-04 22:17 38.61114 -83.96030 37876 ft 412 kts 277°
2026-05-04 22:17 38.61902 -84.03248 37867 ft 412 kts 277°
2026-05-04 22:18 38.62691 -84.10518 37862 ft 412 kts 277°
2026-05-04 22:18 38.63476 -84.17791 37854 ft 412 kts 277°
2026-05-04 22:19 38.64256 -84.25052 37841 ft 412 kts 277°
2026-05-04 22:19 38.65007 -84.32308 37847 ft 411 kts 276°
2026-05-04 22:20 38.65489 -84.39586 37856 ft 410 kts 274°
2026-05-04 22:20 38.65888 -84.46810 37844 ft 409 kts 274°
2026-05-04 22:21 38.66303 -84.54068 37842 ft 408 kts 274°
2026-05-04 22:21 38.66728 -84.61297 37833 ft 407 kts 275°
2026-05-04 22:22 38.67154 -84.68516 37846 ft 406 kts 275°
2026-05-04 22:22 38.67576 -84.75722 37839 ft 405 kts 274°
2026-05-04 22:23 38.67991 -84.82918 37847 ft 404 kts 275°
2026-05-04 22:23 38.68401 -84.90090 37828 ft 404 kts 274°
2026-05-04 22:24 38.68806 -84.97252 37829 ft 403 kts 275°
2026-05-04 22:24 38.69204 -85.04360 37837 ft 403 kts 275°
2026-05-04 22:25 38.69600 -85.11512 37830 ft 402 kts 275°
2026-05-04 22:25 38.69990 -85.18662 37840 ft 402 kts 274°
2026-05-04 22:26 38.70364 -85.25820 37840 ft 402 kts 274°
2026-05-04 22:26 38.70730 -85.32962 37858 ft 402 kts 274°
2026-05-04 22:27 38.71092 -85.40064 37865 ft 402 kts 274°
2026-05-04 22:27 38.71452 -85.47211 37851 ft 402 kts 274°
2026-05-04 22:28 38.71807 -85.54354 37858 ft 402 kts 274°
2026-05-04 22:28 38.72159 -85.61511 37859 ft 402 kts 274°
2026-05-04 22:29 38.72507 -85.68671 37847 ft 402 kts 274°
2026-05-04 22:29 38.72850 -85.75828 37837 ft 402 kts 274°
2026-05-04 22:30 38.73187 -85.82945 37826 ft 403 kts 274°
2026-05-04 22:30 38.73522 -85.90102 37820 ft 402 kts 274°
2026-05-04 22:31 38.73852 -85.97261 37811 ft 402 kts 274°
2026-05-04 22:31 38.74177 -86.04416 37812 ft 402 kts 274°
2026-05-04 22:32 38.74496 -86.11516 37800 ft 403 kts 274°
2026-05-04 22:32 38.74817 -86.18772 37804 ft 403 kts 274°
2026-05-04 22:33 38.75128 -86.25892 37803 ft 403 kts 274°
2026-05-04 22:33 38.75438 -86.33076 37806 ft 403 kts 274°
2026-05-04 22:34 38.75743 -86.40242 37802 ft 402 kts 274°
2026-05-04 22:34 38.76041 -86.47359 37805 ft 402 kts 274°
2026-05-04 22:35 38.76340 -86.54515 37806 ft 402 kts 274°
2026-05-04 22:35 38.76635 -86.61666 37803 ft 402 kts 274°
2026-05-04 22:36 38.76925 -86.68817 37804 ft 401 kts 274°
2026-05-04 22:36 38.77212 -86.75972 37803 ft 401 kts 274°
2026-05-04 22:37 38.77493 -86.83114 37793 ft 401 kts 274°
2026-05-04 22:37 38.77769 -86.90224 37793 ft 401 kts 274°
2026-05-04 22:38 38.78041 -86.97368 37790 ft 401 kts 274°
2026-05-04 22:38 38.78310 -87.04518 37788 ft 401 kts 274°
2026-05-04 22:39 38.78574 -87.11668 37786 ft 401 kts 274°
2026-05-04 22:39 38.78833 -87.18805 37788 ft 401 kts 274°
2026-05-04 22:40 38.79086 -87.25889 37790 ft 400 kts 274°
2026-05-04 22:40 38.79337 -87.33018 37792 ft 400 kts 274°
2026-05-04 22:41 38.79583 -87.40143 37775 ft 400 kts 274°
2026-05-04 22:41 38.79824 -87.47266 37770 ft 400 kts 274°
2026-05-04 22:42 38.80062 -87.54392 37766 ft 400 kts 274°
2026-05-04 22:42 38.80294 -87.61518 37770 ft 399 kts 274°
2026-05-04 22:43 38.80521 -87.68592 37767 ft 399 kts 274°
2026-05-04 22:43 38.80634 -87.72156 37944 ft 399 kts 274°
2026-05-04 22:43 38.80745 -87.75710 37945 ft 399 kts 274°
2026-05-04 22:44 38.80928 -87.81621 37941 ft 399 kts 274°
2026-05-04 22:44 38.81144 -87.88730 37911 ft 399 kts 274°
2026-05-04 22:45 38.81355 -87.95831 37885 ft 398 kts 274°
2026-05-04 22:45 38.81562 -88.02929 37749 ft 398 kts 274°
2026-05-04 22:45 38.81663 -88.06474 37751 ft 398 kts 274°
2026-05-04 22:46 38.81863 -88.13558 37740 ft 397 kts 274°
2026-05-04 22:46 38.82059 -88.20637 37749 ft 397 kts 274°
2026-05-04 22:47 38.82249 -88.27670 37746 ft 396 kts 274°
2026-05-04 22:47 38.82436 -88.34737 37753 ft 396 kts 274°
2026-05-04 22:48 38.82618 -88.41802 37752 ft 395 kts 274°
2026-05-04 22:48 38.82795 -88.48815 37754 ft 395 kts 274°
2026-05-04 22:49 38.82968 -88.55858 37757 ft 395 kts 275°
2026-05-04 22:49 38.83138 -88.62894 37764 ft 394 kts 275°
2026-05-04 22:50 38.83302 -88.69927 37769 ft 394 kts 275°
2026-05-04 22:50 38.83463 -88.76959 37773 ft 394 kts 275°
2026-05-04 22:51 38.83619 -88.83986 37762 ft 394 kts 275°
2026-05-04 22:51 38.83771 -88.90966 37765 ft 394 kts 275°
2026-05-04 22:52 38.83919 -88.97998 37761 ft 394 kts 275°
2026-05-04 22:52 38.84061 -89.04990 37775 ft 393 kts 275°
2026-05-04 22:53 38.84200 -89.12002 37751 ft 393 kts 275°
2026-05-04 22:53 38.84335 -89.19028 37745 ft 393 kts 275°
2026-05-04 22:54 38.84467 -89.26040 37736 ft 393 kts 275°
2026-05-04 22:54 38.84594 -89.33010 37746 ft 392 kts 275°
2026-05-04 22:55 38.84718 -89.40010 37730 ft 392 kts 275°
2026-05-04 22:55 38.84838 -89.47009 37726 ft 392 kts 275°
2026-05-04 22:56 38.84953 -89.54004 37710 ft 392 kts 275°
2026-05-04 22:56 38.85063 -89.60952 37714 ft 392 kts 275°
2026-05-04 22:57 38.85170 -89.67941 37719 ft 391 kts 275°
2026-05-04 22:57 38.85273 -89.74932 37716 ft 391 kts 275°
2026-05-04 22:58 38.85371 -89.81915 37716 ft 391 kts 275°
2026-05-04 22:58 38.85465 -89.88861 37715 ft 391 kts 275°
2026-05-04 22:59 38.85555 -89.95842 37718 ft 392 kts 275°
2026-05-04 22:59 38.85641 -90.02831 37729 ft 392 kts 275°
2026-05-04 23:00 38.85723 -90.09839 37716 ft 392 kts 275°
2026-05-04 23:00 38.85801 -90.16788 37720 ft 392 kts 275°
2026-05-04 23:01 38.85874 -90.23787 37714 ft 392 kts 275°
2026-05-04 23:01 38.85944 -90.30786 37682 ft 391 kts 275°
2026-05-04 23:02 38.86010 -90.37776 37681 ft 391 kts 275°
2026-05-04 23:02 38.86071 -90.44718 37687 ft 391 kts 275°
2026-05-04 23:03 38.86455 -90.51636 37690 ft 387 kts 281°
2026-05-04 23:03 38.87277 -90.58466 37682 ft 387 kts 282°
2026-05-04 23:04 38.88095 -90.65293 37678 ft 387 kts 281°
2026-05-04 23:04 38.88896 -90.72126 37676 ft 387 kts 281°
2026-05-04 23:05 38.89689 -90.78964 37688 ft 387 kts 281°
2026-05-04 23:05 38.90471 -90.85757 37681 ft 387 kts 281°
2026-05-04 23:06 38.91254 -90.92607 37684 ft 387 kts 281°
2026-05-04 23:06 38.92029 -90.99415 37682 ft 387 kts 281°
2026-05-04 23:07 38.92805 -91.06275 37679 ft 387 kts 281°
2026-05-04 23:07 38.93577 -91.13131 37684 ft 387 kts 281°
2026-05-04 23:08 38.94342 -91.19966 37687 ft 387 kts 281°
2026-05-04 23:08 38.95098 -91.26754 37680 ft 386 kts 281°
2026-05-04 23:09 38.95856 -91.33589 37687 ft 386 kts 281°
2026-05-04 23:09 38.96608 -91.40415 37686 ft 385 kts 281°
2026-05-04 23:10 38.97355 -91.47236 37693 ft 385 kts 281°
2026-05-04 23:10 38.98098 -91.54053 37683 ft 384 kts 281°
2026-05-04 23:11 38.98835 -91.60853 37690 ft 384 kts 281°
2026-05-04 23:11 38.99562 -91.67605 37691 ft 383 kts 281°
2026-05-04 23:12 39.00290 -91.74392 37688 ft 383 kts 281°
2026-05-04 23:12 39.01014 -91.81170 37690 ft 382 kts 281°
2026-05-04 23:13 39.01735 -91.87936 37691 ft 382 kts 281°
2026-05-04 23:13 39.02452 -91.94690 37685 ft 381 kts 281°
2026-05-04 23:14 39.03164 -92.01444 37685 ft 380 kts 281°
2026-05-04 23:14 39.03871 -92.08188 37693 ft 380 kts 281°
2026-05-04 23:15 39.04570 -92.14892 37695 ft 379 kts 281°
2026-05-04 23:15 39.05268 -92.21620 37697 ft 379 kts 281°
2026-05-04 23:16 39.05960 -92.28338 37685 ft 378 kts 281°
2026-05-04 23:16 39.06648 -92.35048 37682 ft 378 kts 281°
2026-05-04 23:17 39.07330 -92.41746 37684 ft 377 kts 281°
2026-05-04 23:17 39.08003 -92.48387 37689 ft 376 kts 281°
2026-05-04 23:18 39.08676 -92.55072 37696 ft 376 kts 281°
2026-05-04 23:18 39.09344 -92.61746 37688 ft 375 kts 281°
2026-05-04 23:19 39.10008 -92.68412 37695 ft 375 kts 281°
2026-05-04 23:19 39.10662 -92.75018 37694 ft 374 kts 281°
2026-05-04 23:20 39.11316 -92.81669 37688 ft 374 kts 281°
2026-05-04 23:20 39.11966 -92.88314 37687 ft 373 kts 281°
2026-05-04 23:21 39.12611 -92.94949 37686 ft 373 kts 281°
2026-05-04 23:21 39.13251 -93.01582 37686 ft 373 kts 281°
2026-05-04 23:22 39.13883 -93.08162 37691 ft 372 kts 281°
2026-05-04 23:22 39.14515 -93.14783 37696 ft 372 kts 280°
2026-05-04 23:23 39.15143 -93.21402 37693 ft 372 kts 280°
2026-05-04 23:23 39.15767 -93.28016 37692 ft 372 kts 280°
2026-05-04 23:24 39.16383 -93.34593 37691 ft 371 kts 280°
2026-05-04 23:24 39.16998 -93.41199 37686 ft 371 kts 280°
2026-05-04 23:25 39.17610 -93.47805 37682 ft 371 kts 280°
2026-05-04 23:25 39.18217 -93.54406 37678 ft 370 kts 280°
2026-05-04 23:26 39.18819 -93.60997 37666 ft 370 kts 280°
2026-05-04 23:26 39.19416 -93.67591 37670 ft 370 kts 280°
2026-05-04 23:27 39.20008 -93.74181 37664 ft 370 kts 280°
2026-05-04 23:27 39.20593 -93.80728 37662 ft 369 kts 280°
2026-05-04 23:28 39.21165 -93.87196 37648 ft 354 kts 279°
2026-05-04 23:28 39.21713 -93.93407 37665 ft 348 kts 279°
2026-05-04 23:29 39.22258 -93.99606 37667 ft 347 kts 279°
2026-05-04 23:29 39.22802 -94.05823 37680 ft 351 kts 279°
2026-05-04 23:30 39.23350 -94.12131 37671 ft 355 kts 279°
2026-05-04 23:30 39.23897 -94.18489 37663 ft 357 kts 279°
2026-05-04 23:31 39.24438 -94.24825 37675 ft 357 kts 279°
2026-05-04 23:31 39.24981 -94.31217 37679 ft 357 kts 279°
2026-05-04 23:32 39.25429 -94.36520 37669 ft 357 kts 279°
2026-05-04 23:32 39.25964 -94.42898 37668 ft 356 kts 279°
2026-05-04 23:33 39.26490 -94.49211 37671 ft 355 kts 279°
2026-05-04 23:33 39.27016 -94.55555 37672 ft 355 kts 279°
2026-05-04 23:34 39.27538 -94.61892 37675 ft 354 kts 279°
2026-05-04 23:34 39.28052 -94.68178 37673 ft 353 kts 279°
2026-05-04 23:35 39.28333 -94.74522 37681 ft 356 kts 272°
2026-05-04 23:35 39.27727 -94.80911 37682 ft 360 kts 268°
2026-05-04 23:36 39.26988 -94.87306 37673 ft 360 kts 268°
2026-05-04 23:36 39.26257 -94.93647 37656 ft 359 kts 268°
2026-05-04 23:37 39.25524 -95.00041 37664 ft 359 kts 268°
2026-05-04 23:37 39.24792 -95.06431 37662 ft 359 kts 268°
2026-05-04 23:38 39.24060 -95.12807 37662 ft 359 kts 268°
2026-05-04 23:38 39.23328 -95.19140 37665 ft 359 kts 268°
2026-05-04 23:39 39.22588 -95.25518 37666 ft 360 kts 267°
2026-05-04 23:39 39.21845 -95.31898 37659 ft 360 kts 267°
2026-05-04 23:40 39.21096 -95.38291 37652 ft 360 kts 267°
2026-05-04 23:40 39.20344 -95.44678 37658 ft 360 kts 267°
2026-05-04 23:41 39.19588 -95.51062 37659 ft 360 kts 267°
2026-05-04 23:41 39.18833 -95.57413 37659 ft 360 kts 267°
2026-05-04 23:42 39.18071 -95.63797 37663 ft 360 kts 267°
2026-05-04 23:42 39.17305 -95.70174 37662 ft 360 kts 267°
2026-05-04 23:43 39.16537 -95.76546 37666 ft 359 kts 267°
2026-05-04 23:43 39.15770 -95.82877 37657 ft 359 kts 267°
2026-05-04 23:44 39.14996 -95.89236 37654 ft 359 kts 267°
2026-05-04 23:44 39.14217 -95.95599 37656 ft 359 kts 267°
2026-05-04 23:45 39.13436 -96.01958 37650 ft 358 kts 267°
2026-05-04 23:45 39.12658 -96.08260 37644 ft 358 kts 267°
2026-05-04 23:46 39.11873 -96.14595 37646 ft 358 kts 267°
2026-05-04 23:46 39.11085 -96.20921 37644 ft 357 kts 267°
2026-05-04 23:47 39.10299 -96.27202 37650 ft 357 kts 267°
2026-05-04 23:47 39.09504 -96.33526 37656 ft 357 kts 267°
2026-05-04 23:48 39.08708 -96.39834 37661 ft 356 kts 267°
2026-05-04 23:48 39.07909 -96.46131 37663 ft 356 kts 267°
2026-05-04 23:49 39.07114 -96.52371 37671 ft 355 kts 267°
2026-05-04 23:49 39.06313 -96.58630 37667 ft 354 kts 267°
2026-05-04 23:50 39.05511 -96.64868 37672 ft 353 kts 267°
2026-05-04 23:50 39.04708 -96.71093 37670 ft 351 kts 267°
2026-05-04 23:51 39.03906 -96.77283 37666 ft 350 kts 267°
2026-05-04 23:51 39.03108 -96.83419 37659 ft 349 kts 267°
2026-05-04 23:52 39.02305 -96.89563 37661 ft 347 kts 267°
2026-05-04 23:52 39.01500 -96.95678 37654 ft 346 kts 267°
2026-05-04 23:53 39.00692 -97.01747 37653 ft 345 kts 267°
2026-05-04 23:53 38.99880 -97.07829 37641 ft 344 kts 267°
2026-05-04 23:54 38.99068 -97.13890 37643 ft 344 kts 267°
2026-05-04 23:54 38.98256 -97.19937 37632 ft 343 kts 267°
2026-05-04 23:55 38.97440 -97.25982 37633 ft 342 kts 267°
2026-05-04 23:56 38.96222 -97.34963 37641 ft 340 kts 267°
2026-05-04 23:56 38.95408 -97.40936 37651 ft 339 kts 267°
2026-05-04 23:57 38.94594 -97.46887 37654 ft 337 kts 267°
2026-05-04 23:57 38.93782 -97.52807 37655 ft 335 kts 267°
2026-05-04 23:58 38.92970 -97.58688 37664 ft 333 kts 267°
2026-05-04 23:58 38.92378 -97.64536 37670 ft 326 kts 272°
2026-05-04 23:59 38.92150 -97.70314 37668 ft 325 kts 272°
2026-05-04 23:59 38.91927 -97.76109 37662 ft 324 kts 272°
2026-05-05 00:00 38.91696 -97.81895 37664 ft 323 kts 272°
2026-05-05 00:00 38.91462 -97.87627 37658 ft 323 kts 272°
2026-05-05 00:01 38.91222 -97.93387 37653 ft 322 kts 272°
2026-05-05 00:01 38.90981 -97.99098 37647 ft 322 kts 272°
2026-05-05 00:02 38.90735 -98.04829 37646 ft 321 kts 272°
2026-05-05 00:02 38.90488 -98.10544 37650 ft 320 kts 272°
2026-05-05 00:03 38.90240 -98.16223 37652 ft 320 kts 272°
2026-05-05 00:03 38.89987 -98.21940 37654 ft 320 kts 272°
2026-05-05 00:04 38.89731 -98.27660 37652 ft 320 kts 272°
2026-05-05 00:04 38.89473 -98.33348 37649 ft 321 kts 272°
2026-05-05 00:05 38.89212 -98.39067 37655 ft 321 kts 272°
2026-05-05 00:05 38.88947 -98.44787 37662 ft 321 kts 272°
2026-05-05 00:06 38.88680 -98.50509 37658 ft 320 kts 272°
2026-05-05 00:06 38.88410 -98.56212 37669 ft 319 kts 271°
2026-05-05 00:07 38.88139 -98.61904 37672 ft 320 kts 271°
2026-05-05 00:07 38.87866 -98.67562 37672 ft 320 kts 271°
2026-05-05 00:08 38.87589 -98.73264 37676 ft 319 kts 271°
2026-05-05 00:08 38.87309 -98.78959 37673 ft 319 kts 271°
2026-05-05 00:09 38.87026 -98.84650 37673 ft 319 kts 271°
2026-05-05 00:09 38.86741 -98.90336 37673 ft 319 kts 271°
2026-05-05 00:10 38.86454 -98.96011 37673 ft 319 kts 271°
2026-05-05 00:10 38.86165 -99.01660 37668 ft 318 kts 271°
2026-05-05 00:11 38.85872 -99.07345 37683 ft 318 kts 271°
2026-05-05 00:11 38.85579 -99.12977 37687 ft 318 kts 271°
2026-05-05 00:12 38.85281 -99.18645 37692 ft 318 kts 271°
2026-05-05 00:12 38.84980 -99.24322 37696 ft 318 kts 271°
2026-05-05 00:13 38.84800 -99.29992 37696 ft 317 kts 274°
2026-05-05 00:13 38.84861 -99.35638 37690 ft 317 kts 274°
2026-05-05 00:14 38.84933 -99.41284 37692 ft 317 kts 274°
2026-05-05 00:14 38.84998 -99.46909 37680 ft 317 kts 274°
2026-05-05 00:15 38.85056 -99.52581 37676 ft 317 kts 274°
2026-05-05 00:15 38.85110 -99.58254 37672 ft 318 kts 274°
2026-05-05 00:16 38.85159 -99.63894 37663 ft 318 kts 274°
2026-05-05 00:16 38.85206 -99.69583 37655 ft 319 kts 274°
2026-05-05 00:17 38.85250 -99.75270 37651 ft 319 kts 274°
2026-05-05 00:17 38.85291 -99.80968 37651 ft 319 kts 274°
2026-05-05 00:18 38.85329 -99.86640 37646 ft 319 kts 274°
2026-05-05 00:18 38.85365 -99.92348 37650 ft 320 kts 273°
2026-05-05 00:19 38.85398 -99.98071 37651 ft 321 kts 273°
2026-05-05 00:19 38.85428 -100.03759 37650 ft 321 kts 273°
2026-05-05 00:20 38.85451 -100.08572 37651 ft 322 kts 273°
2026-05-05 00:20 38.85476 -100.14275 37647 ft 322 kts 273°
2026-05-05 00:21 38.85499 -100.20030 37640 ft 322 kts 273°
2026-05-05 00:21 38.85518 -100.25787 37649 ft 322 kts 273°
2026-05-05 00:22 38.85535 -100.31546 37642 ft 323 kts 273°
2026-05-05 00:22 38.85549 -100.37297 37646 ft 322 kts 273°
2026-05-05 00:23 38.85560 -100.43056 37644 ft 323 kts 273°
2026-05-05 00:23 38.85568 -100.48772 37645 ft 322 kts 273°
2026-05-05 00:24 38.85574 -100.54527 37649 ft 323 kts 273°
2026-05-05 00:24 38.85577 -100.60288 37658 ft 323 kts 273°
2026-05-05 00:25 38.85576 -100.66048 37658 ft 323 kts 273°
2026-05-05 00:25 38.85574 -100.71815 37650 ft 323 kts 272°
2026-05-05 00:26 38.85568 -100.77536 37664 ft 323 kts 272°
2026-05-05 00:26 38.85559 -100.83293 37669 ft 323 kts 272°
2026-05-05 00:27 38.85548 -100.89065 37659 ft 323 kts 272°
2026-05-05 00:27 38.85534 -100.94824 37661 ft 323 kts 272°
2026-05-05 00:28 38.85517 -101.00556 37652 ft 323 kts 272°
2026-05-05 00:28 38.85497 -101.06325 37648 ft 323 kts 272°
2026-05-05 00:29 38.85474 -101.12100 37638 ft 323 kts 272°
2026-05-05 00:29 38.85448 -101.17867 37627 ft 323 kts 272°
2026-05-05 00:30 38.85420 -101.23650 37624 ft 324 kts 272°
2026-05-05 00:30 38.85389 -101.29394 37624 ft 324 kts 272°
2026-05-05 00:31 38.85354 -101.35171 37613 ft 323 kts 272°
2026-05-05 00:31 38.85317 -101.40946 37620 ft 323 kts 272°
2026-05-05 00:32 38.85278 -101.46711 37617 ft 323 kts 272°
2026-05-05 00:32 38.85235 -101.52474 37624 ft 323 kts 272°
2026-05-05 00:33 38.85190 -101.58211 37619 ft 324 kts 272°
2026-05-05 00:33 38.85142 -101.63991 37618 ft 324 kts 272°
2026-05-05 00:34 38.85091 -101.69784 37620 ft 324 kts 272°
2026-05-05 00:34 38.85037 -101.75585 37622 ft 325 kts 271°
2026-05-05 00:35 38.84980 -101.81396 37626 ft 325 kts 271°
2026-05-05 00:35 38.84918 -101.87160 37620 ft 325 kts 271°
2026-05-05 00:36 38.84853 -101.92973 37621 ft 326 kts 271°
2026-05-05 00:36 38.84785 -101.98787 37626 ft 326 kts 271°
2026-05-05 00:37 38.84715 -102.04603 37628 ft 326 kts 271°
2026-05-05 00:37 38.84642 -102.10401 37629 ft 327 kts 271°
2026-05-05 00:38 38.84567 -102.16227 37632 ft 327 kts 271°
2026-05-05 00:38 38.84489 -102.22071 37635 ft 327 kts 272°
2026-05-05 00:39 38.84950 -102.27872 37633 ft 327 kts 280°
2026-05-05 00:39 38.86102 -102.33532 37641 ft 328 kts 283°
2026-05-05 00:40 38.87344 -102.39126 37641 ft 328 kts 283°
2026-05-05 00:40 38.88588 -102.44766 37653 ft 328 kts 283°
2026-05-05 00:41 38.89820 -102.50409 37654 ft 328 kts 282°
2026-05-05 00:41 38.91045 -102.56048 37659 ft 328 kts 282°
2026-05-05 00:42 38.92266 -102.61692 37661 ft 328 kts 282°
2026-05-05 00:42 38.93476 -102.67295 37665 ft 327 kts 282°
2026-05-05 00:43 38.94694 -102.72953 37661 ft 327 kts 282°
2026-05-05 00:43 38.95894 -102.78539 37659 ft 321 kts 282°
2026-05-05 00:44 38.97066 -102.84004 37662 ft 317 kts 282°
2026-05-05 00:44 38.98229 -102.89447 37660 ft 309 kts 282°
2026-05-05 00:44 38.98789 -102.92048 37657 ft 293 kts 281°
2026-05-05 00:45 38.99321 -102.94518 37657 ft 279 kts 281°
2026-05-05 00:45 38.99824 -102.96864 37659 ft 265 kts 281°
2026-05-05 00:45 39.00296 -102.99066 37664 ft 255 kts 281°
2026-05-05 00:45 39.00766 -103.01280 37676 ft 258 kts 281°
2026-05-05 00:46 39.01242 -103.03527 37681 ft 263 kts 281°
2026-05-05 00:46 39.01727 -103.05815 37685 ft 268 kts 281°
2026-05-05 00:46 39.02225 -103.08158 37696 ft 272 kts 281°
2026-05-05 00:46 39.02729 -103.10531 37690 ft 277 kts 281°
2026-05-05 00:47 39.03239 -103.12931 37688 ft 279 kts 281°
2026-05-05 00:47 39.03745 -103.15313 37688 ft 280 kts 281°
2026-05-05 00:47 39.04367 -103.17708 37687 ft 284 kts 285°
2026-05-05 00:47 39.05174 -103.20048 37683 ft 288 kts 289°
2026-05-05 00:48 39.06159 -103.22311 37683 ft 289 kts 291°
2026-05-05 00:48 39.07201 -103.24511 37693 ft 285 kts 292°
2026-05-05 00:48 39.08226 -103.26640 37693 ft 281 kts 292°
2026-05-05 00:48 39.09253 -103.28781 37705 ft 280 kts 291°
2026-05-05 00:49 39.10275 -103.30921 37715 ft 280 kts 291°
2026-05-05 00:49 39.11294 -103.33065 37724 ft 280 kts 291°
2026-05-05 00:49 39.12312 -103.35209 37739 ft 280 kts 291°
2026-05-05 00:49 39.13330 -103.37358 37750 ft 280 kts 291°
2026-05-05 00:50 39.14341 -103.39497 37752 ft 279 kts 291°
2026-05-05 00:50 39.15343 -103.41612 37444 ft 274 kts 291°
2026-05-05 00:50 39.16329 -103.43698 36947 ft 273 kts 291°
2026-05-05 00:50 39.17324 -103.45823 35815 ft 290 kts 292°
2026-05-05 00:51 39.18406 -103.48141 34425 ft 314 kts 294°
2026-05-05 00:51 39.19578 -103.50644 32917 ft 338 kts 295°
2026-05-05 00:51 39.20842 -103.53325 31408 ft 361 kts 296°
2026-05-05 00:51 39.22182 -103.56170 30069 ft 380 kts 297°
2026-05-05 00:52 39.23582 -103.59135 28999 ft 389 kts 298°
2026-05-05 00:52 39.24978 -103.62091 28560 ft 382 kts 298°
2026-05-05 00:52 39.26349 -103.65002 28092 ft 376 kts 298°
2026-05-05 00:52 39.27702 -103.67887 27478 ft 374 kts 298°
2026-05-05 00:53 39.29058 -103.70755 26864 ft 373 kts 299°
2026-05-05 00:53 39.30489 -103.73539 26393 ft 370 kts 301°
2026-05-05 00:53 39.31949 -103.76264 25907 ft 367 kts 301°
2026-05-05 00:53 39.33386 -103.78932 25366 ft 366 kts 301°
2026-05-05 00:54 39.34837 -103.81639 24795 ft 365 kts 301°
2026-05-05 00:54 39.36277 -103.84343 24275 ft 364 kts 301°
2026-05-05 00:54 39.37706 -103.87044 23740 ft 364 kts 301°
2026-05-05 00:54 39.39134 -103.89750 23194 ft 363 kts 301°
2026-05-05 00:55 39.40553 -103.92444 22707 ft 360 kts 301°
2026-05-05 00:55 39.41938 -103.95074 22589 ft 347 kts 301°
2026-05-05 00:55 39.43261 -103.97585 22493 ft 335 kts 301°
2026-05-05 00:55 39.44547 -104.00049 22393 ft 324 kts 300°
2026-05-05 00:56 39.45729 -104.02494 22157 ft 317 kts 298°
2026-05-05 00:56 39.46873 -104.04929 21743 ft 316 kts 298°
2026-05-05 00:56 39.48022 -104.07364 21327 ft 316 kts 298°
2026-05-05 00:56 39.49155 -104.09750 20947 ft 315 kts 298°
2026-05-05 00:57 39.50460 -104.12035 20568 ft 318 kts 313°
2026-05-05 00:57 39.52305 -104.13644 20219 ft 324 kts 330°
2026-05-05 00:57 39.54486 -104.14466 19928 ft 331 kts 349°
2026-05-05 00:57 39.56767 -104.14569 19899 ft 323 kts 354°
2026-05-05 00:58 39.58988 -104.14573 19821 ft 313 kts 354°
2026-05-05 00:58 39.61134 -104.14586 19765 ft 303 kts 353°
2026-05-05 00:58 39.63189 -104.14615 19695 ft 294 kts 353°
2026-05-05 00:58 39.65208 -104.14635 19630 ft 287 kts 357°
2026-05-05 00:59 39.67159 -104.13996 19431 ft 295 kts 21°
2026-05-05 00:59 39.68841 -104.12425 19145 ft 304 kts 43°
2026-05-05 00:59 39.70018 -104.10120 18841 ft 310 kts 66°
2026-05-05 00:59 39.70448 -104.07376 18550 ft 312 kts 92°
2026-05-05 01:00 39.70015 -104.04653 18303 ft 307 kts 118°
2026-05-05 01:00 39.68837 -104.02447 18040 ft 297 kts 142°
2026-05-05 01:00 39.67155 -104.00992 17757 ft 286 kts 162°
2026-05-05 01:00 39.65278 -104.00314 17445 ft 276 kts 181°
2026-05-05 01:01 39.63370 -104.00219 17186 ft 272 kts 185°
2026-05-05 01:01 39.61481 -104.00199 16918 ft 271 kts 185°
2026-05-05 01:01 39.59595 -104.00176 16643 ft 270 kts 185°
2026-05-05 01:01 39.57719 -104.00143 16395 ft 269 kts 185°
2026-05-05 01:02 39.55876 -104.00323 16136 ft 261 kts 201°
2026-05-05 01:02 39.54261 -104.01293 15874 ft 253 kts 218°
2026-05-05 01:02 39.52986 -104.02777 15611 ft 248 kts 234°
2026-05-05 01:02 39.52111 -104.04679 15304 ft 246 kts 250°
2026-05-05 01:03 39.51732 -104.06840 15042 ft 246 kts 266°
2026-05-05 01:03 39.51894 -104.09037 14801 ft 246 kts 283°
2026-05-05 01:03 39.52593 -104.11069 14542 ft 250 kts 301°
2026-05-05 01:03 39.53781 -104.12728 14278 ft 255 kts 318°
2026-05-05 01:04 39.55279 -104.13911 14011 ft 258 kts 332°
2026-05-05 01:04 39.58901 -104.14505 13302 ft 266 kts 354°
2026-05-05 01:04 39.60727 -104.14163 12915 ft 273 kts 24°
2026-05-05 01:05 39.62109 -104.12559 12791 ft 266 kts 59°
2026-05-05 01:05 39.62678 -104.10336 12706 ft 258 kts 88°
2026-05-05 01:05 39.62436 -104.08058 12709 ft 259 kts 115°
2026-05-05 01:05 39.61437 -104.06092 12704 ft 265 kts 141°
2026-05-05 01:06 39.60445 -104.05188 12684 ft 263 kts 158°
2026-05-05 01:06 39.58726 -104.04439 12655 ft 258 kts 168°
2026-05-05 01:06 39.56991 -104.03840 12616 ft 257 kts 169°
2026-05-05 01:06 39.55266 -104.03252 12586 ft 256 kts 169°
2026-05-05 01:07 39.53552 -104.02658 12560 ft 255 kts 168°
2026-05-05 01:07 39.51845 -104.02055 12535 ft 253 kts 168°
2026-05-05 01:07 39.50148 -104.01454 12513 ft 252 kts 168°
2026-05-05 01:07 39.48453 -104.00851 12499 ft 251 kts 168°
2026-05-05 01:08 39.46773 -104.00713 12457 ft 244 kts 195°
2026-05-05 01:08 39.45287 -104.01649 12467 ft 238 kts 223°
2026-05-05 01:08 39.44303 -104.03350 12454 ft 237 kts 246°
2026-05-05 01:08 39.43906 -104.05422 12445 ft 239 kts 263°
2026-05-05 01:09 39.43804 -104.07575 12411 ft 241 kts 266°
2026-05-05 01:09 39.43751 -104.09747 12391 ft 242 kts 267°
2026-05-05 01:09 39.43698 -104.11924 12360 ft 241 kts 266°
2026-05-05 01:09 39.43639 -104.14077 12332 ft 238 kts 266°
2026-05-05 01:10 39.43575 -104.16186 12320 ft 239 kts 266°
2026-05-05 01:10 39.43505 -104.18358 12320 ft 243 kts 266°
2026-05-05 01:10 39.43430 -104.20555 12298 ft 245 kts 266°
2026-05-05 01:10 39.43351 -104.22769 12280 ft 246 kts 266°
2026-05-05 01:11 39.43272 -104.24987 12257 ft 247 kts 266°
2026-05-05 01:11 39.43191 -104.27224 12240 ft 249 kts 266°
2026-05-05 01:11 39.43113 -104.29448 12222 ft 252 kts 266°
2026-05-05 01:11 39.43034 -104.31719 12203 ft 253 kts 266°
2026-05-05 01:12 39.42954 -104.33981 12171 ft 250 kts 266°
2026-05-05 01:12 39.42876 -104.36216 12156 ft 247 kts 266°
2026-05-05 01:12 39.42799 -104.38421 12131 ft 244 kts 266°
2026-05-05 01:12 39.42721 -104.40610 12118 ft 243 kts 266°
2026-05-05 01:13 39.42643 -104.42785 12098 ft 242 kts 266°
2026-05-05 01:13 39.42565 -104.44959 12111 ft 243 kts 266°
2026-05-05 01:13 39.42487 -104.47124 12101 ft 245 kts 266°
2026-05-05 01:13 39.42407 -104.49338 12105 ft 248 kts 266°
2026-05-05 01:14 39.42324 -104.51581 12100 ft 252 kts 267°
2026-05-05 01:14 39.42254 -104.53857 12090 ft 254 kts 268°
2026-05-05 01:14 39.42192 -104.56133 12074 ft 253 kts 268°
2026-05-05 01:14 39.42131 -104.58402 12058 ft 252 kts 268°
2026-05-05 01:15 39.42225 -104.60646 12016 ft 251 kts 287°
2026-05-05 01:15 39.43083 -104.62570 12023 ft 247 kts 313°
2026-05-05 01:15 39.44455 -104.63857 12027 ft 247 kts 331°
2026-05-05 01:15 39.46012 -104.64813 12023 ft 248 kts 334°
2026-05-05 01:16 39.46568 -104.65135 12020 ft 248 kts 334°
2026-05-05 01:16 39.47813 -104.65853 12005 ft 249 kts 336°
2026-05-05 01:16 39.49520 -104.66384 11838 ft 259 kts 354°
2026-05-05 01:16 39.51361 -104.66462 11506 ft 268 kts 359°
2026-05-05 01:17 39.53240 -104.66422 11143 ft 270 kts
2026-05-05 01:17 39.55092 -104.66378 10809 ft 262 kts
2026-05-05 01:17 39.56858 -104.66349 10477 ft 253 kts
2026-05-05 01:17 39.58581 -104.66328 10161 ft 242 kts
2026-05-05 01:18 39.60237 -104.66310 9865 ft 233 kts
2026-05-05 01:18 39.61827 -104.66293 9557 ft 224 kts
2026-05-05 01:18 39.63367 -104.66275 9263 ft 216 kts
2026-05-05 01:18 39.64840 -104.66258 8999 ft 206 kts
2026-05-05 01:19 39.66248 -104.66241 8712 ft 199 kts
2026-05-05 01:19 39.67584 -104.66227 8451 ft 190 kts
2026-05-05 01:19 39.68886 -104.66212 8200 ft 181 kts
2026-05-05 01:19 39.70113 -104.66198 7975 ft 172 kts
2026-05-05 01:20 39.71278 -104.66183 7745 ft 163 kts
2026-05-05 01:20 39.72409 -104.66170 7572 ft 166 kts
2026-05-05 01:20 39.73563 -104.66158 7370 ft 169 kts
2026-05-05 01:20 39.74703 -104.66145 7142 ft 161 kts
2026-05-05 01:21 39.75815 -104.66133 6935 ft 156 kts
2026-05-05 01:21 39.76895 -104.66120 6714 ft 154 kts 359°
2026-05-05 01:21 39.77949 -104.66109 6521 ft 155 kts
2026-05-05 01:21 39.79030 -104.66101 6305 ft 155 kts 359°
2026-05-05 01:22 39.80092 -104.66090 6069 ft 153 kts 357°
2026-05-05 01:22 39.81091 -104.66077 5860 ft 156 kts 360°
2026-05-05 01:22 39.82151 -104.66060 5607 ft 149 kts 358°
2026-05-05 01:22 39.83174 -104.66048 5448 ft 142 kts 358°
2026-05-05 01:23 39.84069 -104.66043 5418 ft 109 kts
2026-05-05 01:23 39.84635 -104.66033 5406 ft 58 kts
2026-05-05 01:23 39.84990 -104.66030 5403 ft 46 kts 358°
2026-05-05 01:23 39.85251 -104.66125 5396 ft 25 kts 331°
2026-05-05 01:24 39.85276 -104.66143 5391 ft 0 kts 330°
2026-05-05 01:24 39.85305 -104.66164 5391 ft 15 kts 330°
2026-05-05 01:24 39.85431 -104.66232 5392 ft 20 kts 351°
2026-05-05 01:25 39.85567 -104.66236 5392 ft 19 kts
2026-05-05 01:25 39.85700 -104.66236 5390 ft 19 kts
2026-05-05 01:25 39.85828 -104.66233 5387 ft 18 kts
2026-05-05 01:25 39.85951 -104.66232 5387 ft 17 kts 359°
2026-05-05 01:26 39.86070 -104.66240 5385 ft 17 kts 336°
2026-05-05 01:26 39.86106 -104.66376 5377 ft 18 kts 269°
2026-05-05 01:26 39.86153 -104.66507 5373 ft 18 kts 345°
2026-05-05 01:26 39.86273 -104.66511 5374 ft 17 kts 360°
2026-05-05 01:27 39.86388 -104.66515 5376 ft 15 kts 338°
2026-05-05 01:27 39.86407 -104.66601 5376 ft 10 kts 270°
2026-05-05 01:27 39.86408 -104.66726 5376 ft 17 kts 271°
2026-05-05 01:27 39.86409 -104.66876 5376 ft 16 kts 271°
2026-05-05 01:28 39.86410 -104.67019 5376 ft 16 kts 270°
2026-05-05 01:28 39.86411 -104.67158 5374 ft 15 kts 269°
2026-05-05 01:28 39.86412 -104.67291 5376 ft 14 kts 271°
2026-05-05 01:28 39.86394 -104.67392 5373 ft 10 kts 216°
2026-05-05 01:29 39.86362 -104.67423 5372 ft 2 kts 221°
2026-05-05 01:29 39.86361 -104.67424 5372 ft 0 kts 221°